EW3966 Weather Reports


Display with metric or nautical units.
time (UTC)temp
F
wind
direction
speed
MPH
gust
MPH
rain 1hr
in
rain 24hr
in
rain mn
in
humidity
%
barometer
mb
20260507012510 57 221 5.0 18.0 0.00 0.00 0.00 78 1021.2
20260507012010 57 216 6.0 13.0 0.00 0.00 0.00 78 1021.2
20260507011512 57 224 5.0 16.0 0.00 0.00 0.00 78 1021.1
20260507011009 57 228 8.0 22.0 0.00 0.00 0.00 79 1021.0
20260507010509 57 272 6.0 22.0 0.00 0.00 0.00 79 1021.1
20260507010010 57 268 9.0 16.0 0.00 0.00 0.00 78 1021.1
20260507005510 57 198 8.0 16.0 0.00 0.00 0.00 79 1021.1
20260507005008 57 268 8.0 22.0 0.00 0.00 0.00 79 1021.2
20260507004509 57 266 9.0 22.0 0.00 0.00 0.00 79 1021.2
20260507004008 56 251 9.0 18.0 0.00 0.00 0.00 79 1021.2
20260507003508 56 228 8.0 18.0 0.00 0.00 0.00 79 1021.2
20260507002513 56 233 9.0 19.0 0.00 0.00 0.00 79 1021.2
20260507002007 56 201 9.0 15.0 0.00 0.00 0.00 79 1021.2
20260507001510 56 230 7.0 16.0 0.00 0.00 0.00 79 1021.2
20260507001007 57 289 7.0 18.0 0.00 0.00 0.00 79 1021.2
20260507000506 57 239 9.0 18.0 0.00 0.00 0.00 78 1021.2
20260507000007 57 237 8.0 16.0 0.00 0.00 0.00 78 1021.2
20260506235506 57 259 8.0 18.0 0.00 0.00 0.00 78 1021.3
20260506235004 57 251 7.0 18.0 0.00 0.00 0.00 78 1021.4
20260506234504 57 218 6.0 16.0 0.00 0.00 0.00 78 1021.5
20260506234006 57 234 7.0 16.0 0.00 0.00 0.00 78 1021.4
20260506233502 57 230 5.0 13.0 0.00 0.00 0.00 77 1021.3
20260506233112 58 257 6.0 13.0 0.00 0.00 0.00 76 1021.2
20260506232502 58 201 6.0 14.0 0.00 0.00 0.00 76 1021.2
20260506232002 58 251 5.0 14.0 0.00 0.00 0.00 75 1021.1
20260506231502 58 193 5.0 13.0 0.00 0.00 0.00 75 1021.1
20260506231001 58 233 6.0 13.0 0.00 0.00 0.00 74 1021.2
20260506230501 59 214 5.0 13.0 0.00 0.00 0.00 73 1021.1
20260506230100 59 276 6.0 13.0 0.00 0.00 0.00 73 1021.1
20260506225600 59 230 7.0 18.0 0.00 0.00 0.00 72 1020.9
20260506225059 59 217 8.0 18.0 0.00 0.00 0.00 72 1021.0
20260506224600 59 246 5.0 16.0 0.00 0.00 0.00 71 1020.9
20260506224058 60 216 5.0 16.0 0.00 0.00 0.00 70 1020.9
20260506223557 60 260 8.0 15.0 0.00 0.00 0.00 70 1020.9
20260506223058 61 206 8.0 18.0 0.00 0.00 0.00 70 1020.9
20260506222558 61 230 8.0 18.0 0.00 0.00 0.00 70 1020.8
20260506222057 61 264 8.0 16.0 0.00 0.00 0.00 70 1020.9
20260506221608 62 266 7.0 25.0 0.00 0.00 0.00 70 1020.8
20260506221055 62 257 9.0 25.0 0.00 0.00 0.00 70 1020.5
20260506220555 62 265 8.0 21.0 0.00 0.00 0.00 70 1020.4
20260506220055 63 215 8.0 19.0 0.00 0.00 0.00 70 1020.4
20260506215556 63 234 5.0 20.0 0.00 0.00 0.00 70 1020.3
20260506215053 63 170 8.0 20.0 0.00 0.00 0.00 69 1020.1
20260506214554 64 222 8.0 18.0 0.00 0.00 0.00 69 1020.0
20260506214052 64 192 5.0 19.0 0.00 0.00 0.00 69 1020.0
20260506213552 64 280 9.0 30.0 0.00 0.00 0.00 69 1019.9
20260506213111 65 205 9.0 24.0 0.00 0.00 0.00 69 1019.7
20260506212552 65 285 9.0 24.0 0.00 0.00 0.00 69 1019.7
20260506212052 65 228 10.0 24.0 0.00 0.00 0.00 68 1019.6
20260506211552 65 249 7.0 16.0 0.00 0.00 0.00 68 1019.6
20260506211051 65 197 7.0 23.0 0.00 0.00 0.00 69 1019.6
20260506210552 65 202 9.0 23.0 0.00 0.00 0.00 68 1019.7
20260506210053 65 228 9.0 19.0 0.00 0.00 0.00 68 1019.7
20260506205550 66 249 6.0 18.0 0.00 0.00 0.00 69 1019.6
20260506205050 66 241 9.0 26.0 0.00 0.00 0.00 68 1019.6
20260506204551 66 243 8.0 26.0 0.00 0.00 0.00 68 1019.7
20260506204050 66 259 7.0 25.0 0.00 0.00 0.00 68 1019.8
20260506203550 66 198 11.0 25.0 0.00 0.00 0.00 67 1019.9
20260506203149 66 206 7.0 25.0 0.00 0.00 0.00 67 1019.9
20260506202550 66 209 8.0 24.0 0.00 0.00 0.00 67 1019.9
20260506202050 67 215 9.0 23.0 0.00 0.00 0.00 67 1019.7
20260506201549 67 279 10.0 25.0 0.00 0.00 0.00 66 1019.6
20260506201050 67 245 11.0 25.0 0.00 0.00 0.00 66 1019.6
20260506200551 68 292 10.0 24.0 0.00 0.00 0.00 65 1019.5
20260506200049 68 272 9.0 27.0 0.00 0.00 0.00 64 1019.4
20260506195549 68 249 10.0 32.0 0.00 0.00 0.00 64 1019.1
20260506195048 68 229 10.0 32.0 0.00 0.00 0.00 63 1019.2
20260506194549 68 218 9.0 24.0 0.00 0.00 0.00 63 1019.2
20260506194049 68 300 11.0 24.0 0.00 0.00 0.00 63 1019.3
20260506193547 68 216 11.0 26.0 0.00 0.00 0.00 62 1019.1
20260506193048 68 220 11.0 28.0 0.00 0.00 0.00 62 1019.1
20260506192547 68 251 11.0 28.0 0.00 0.00 0.00 62 1019.1
20260506192048 68 164 8.0 25.0 0.00 0.00 0.00 63 1019.1
20260506191547 69 234 10.0 22.0 0.00 0.00 0.00 62 1019.2
20260506191047 69 163 8.0 22.0 0.00 0.00 0.00 62 1019.1
20260506190547 69 260 9.0 26.0 0.00 0.00 0.00 61 1019.0
20260506190046 69 201 10.0 28.0 0.00 0.00 0.00 62 1018.9
20260506185546 69 169 9.0 26.0 0.00 0.00 0.00 62 1018.9
20260506185047 69 237 9.0 26.0 0.00 0.00 0.00 62 1019.0
20260506184648 69 305 11.0 26.0 0.00 0.00 0.00 61 1018.8
20260506184045 69 211 10.0 24.0 0.00 0.00 0.00 61 1018.9
20260506183545 70 172 10.0 22.0 0.00 0.00 0.00 62 1018.9
20260506183055 69 206 7.0 31.0 0.00 0.00 0.00 63 1019.0
20260506182545 69 283 8.0 31.0 0.00 0.00 0.00 63 1019.1
20260506182045 69 267 9.0 27.0 0.00 0.00 0.00 63 1019.1
20260506181611 69 232 12.0 28.0 0.00 0.00 0.00 63 1019.2
20260506181045 70 167 10.0 23.0 0.00 0.00 0.00 63 1019.3
20260506180545 70 224 8.0 23.0 0.00 0.00 0.00 63 1019.3
20260506180045 70 245 8.0 22.0 0.00 0.00 0.00 63 1019.4
20260506175544 69 166 9.0 22.0 0.00 0.00 0.00 64 1019.3
20260506175046 69 243 12.0 22.0 0.00 0.00 0.00 64 1019.4
20260506174544 69 266 9.0 22.0 0.00 0.00 0.00 63 1019.4
20260506174042 70 255 8.0 21.0 0.00 0.00 0.00 63 1019.5
20260506173542 69 274 9.0 22.0 0.00 0.00 0.00 64 1019.5
20260506173055 70 185 7.0 24.0 0.00 0.00 0.00 64 1019.4
20260506172544 70 224 7.0 24.0 0.00 0.00 0.00 64 1019.4
20260506172044 69 210 9.0 23.0 0.00 0.00 0.00 64 1019.5
20260506171541 70 259 10.0 27.0 0.00 0.00 0.00 65 1019.4
20260506171041 69 247 9.0 27.0 0.00 0.00 0.00 64 1019.4
20260506170540 69 195 9.0 24.0 0.00 0.00 0.00 65 1019.4
20260506170042 69 248 10.0 29.0 0.00 0.00 0.00 64 1019.4
20260506165540 69 218 10.0 26.0 0.00 0.00 0.00 64 1019.4
20260506165041 69 231 9.0 26.0 0.00 0.00 0.00 64 1019.3
20260506164541 69 259 8.0 26.0 0.00 0.00 0.00 66 1019.4
20260506164038 68 200 10.0 27.0 0.00 0.00 0.00 66 1019.6
20260506163536 68 207 9.0 27.0 0.00 0.00 0.00 66 1019.5
20260506163039 68 230 10.0 22.0 0.00 0.00 0.00 66 1019.6
20260506162538 68 216 11.0 22.0 0.00 0.00 0.00 66 1019.5
20260506162038 68 195 10.0 25.0 0.00 0.00 0.00 66 1019.5
20260506161536 67 246 13.0 28.0 0.00 0.00 0.00 66 1019.3
20260506161037 68 253 10.0 28.0 0.00 0.00 0.00 67 1019.3
20260506160536 67 162 12.0 27.0 0.00 0.00 0.00 66 1019.1
20260506160035 68 234 10.0 26.0 0.00 0.00 0.00 66 1019.2
20260506155536 68 192 11.0 26.0 0.00 0.00 0.00 66 1019.0
20260506155033 67 265 10.0 24.0 0.00 0.00 0.00 67 1018.8
20260506154533 67 243 8.0 25.0 0.00 0.00 0.00 67 1018.8
20260506154032 67 243 11.0 29.0 0.00 0.00 0.00 67 1018.8
20260506153531 67 241 11.0 31.0 0.00 0.00 0.00 67 1018.6
20260506153031 66 245 16.0 32.0 0.00 0.00 0.00 68 1018.3
20260506152530 66 259 15.0 32.0 0.00 0.00 0.00 68 1018.2
20260506152030 67 241 13.0 28.0 0.00 0.00 0.00 68 1018.1
20260506151529 67 293 11.0 29.0 0.00 0.00 0.00 68 1018.1
20260506151031 67 219 17.0 29.0 0.00 0.00 0.00 67 1017.8
20260506150530 67 231 14.0 38.0 0.00 0.00 0.00 67 1017.8
20260506150032 66 253 18.0 42.0 0.00 0.00 0.00 68 1017.6
20260506145528 66 297 19.0 42.0 0.00 0.00 0.00 67 1017.2
20260506145027 66 255 15.0 34.0 0.00 0.00 0.00 67 1017.4
20260506144527 67 172 14.0 30.0 0.00 0.00 0.00 66 1017.4
20260506144027 67 205 13.0 30.0 0.00 0.00 0.00 66 1017.4
20260506143527 67 265 14.0 30.0 0.00 0.00 0.00 66 1017.6
20260506143031 67 271 14.0 35.0 0.00 0.00 0.00 65 1017.7
20260506142526 67 248 14.0 35.0 0.00 0.00 0.00 65 1017.7
20260506142025 67 249 13.0 32.0 0.00 0.00 0.00 64 1017.6
20260506141525 67 265 14.0 35.0 0.00 0.00 0.00 63 1017.5
20260506141026 67 282 15.0 35.0 0.00 0.00 0.00 63 1017.5
20260506140526 67 305 14.0 35.0 0.00 0.00 0.00 63 1017.3
20260506140026 67 210 14.0 33.0 0.00 0.00 0.00 63 1017.2
20260506135523 67 210 15.0 32.0 0.00 0.00 0.00 63 1017.2
20260506135023 67 101 16.0 32.0 0.00 0.00 0.00 63 1017.2
20260506134526 68 189 13.0 32.0 0.00 0.00 0.00 63 1016.9
20260506134023 68 256 14.0 27.0 0.00 0.00 0.00 63 1016.9
20260506133522 68 224 17.0 30.0 0.00 0.00 0.00 63 1016.8
20260506133023 67 224 11.0 33.0 0.00 0.00 0.00 65 1017.1
20260506132524 67 313 13.0 33.0 0.00 0.00 0.00 64 1017.1
20260506132023 67 167 16.0 33.0 0.00 0.00 0.00 64 1017.1
20260506131532 67 276 15.0 33.0 0.00 0.00 0.00 64 1017.2
20260506131022 66 202 12.0 33.0 0.00 0.00 0.00 65 1017.2
20260506130521 66 236 15.0 29.0 0.00 0.00 0.00 65 1017.1
20260506130021 66 257 12.0 31.0 0.00 0.00 0.00 66 1017.2
20260506125520 66 232 14.0 31.0 0.00 0.00 0.00 65 1017.2
20260506125018 65 268 11.0 32.0 0.00 0.00 0.00 65 1017.4
20260506124518 65 228 13.0 37.0 0.00 0.00 0.00 66 1017.5
20260506124017 65 199 13.0 37.0 0.00 0.00 0.00 66 1017.4
20260506123516 64 228 14.0 29.0 0.00 0.00 0.00 66 1017.4
20260506123016 64 297 14.0 33.0 0.00 0.00 0.00 66 1017.3
20260506122516 64 203 16.0 33.0 0.00 0.00 0.00 66 1017.3
20260506122012 64 216 13.0 33.0 0.00 0.00 0.00 67 1017.3
20260506121512 63 232 14.0 34.0 0.00 0.00 0.00 67 1017.3
20260506121012 63 214 11.0 34.0 0.00 0.00 0.00 68 1017.2
20260506120511 63 284 13.0 31.0 0.00 0.00 0.00 69 1017.3
20260506120017 63 221 11.0 26.0 0.00 0.00 0.00 69 1017.4
20260506115509 62 229 13.0 26.0 0.00 0.00 0.00 70 1017.4
20260506115009 62 244 11.0 25.0 0.00 0.00 0.00 70 1017.5
20260506114518 62 240 11.0 27.0 0.00 0.00 0.00 71 1017.4
20260506114006 62 249 12.0 27.0 0.00 0.00 0.00 71 1017.6
20260506113506 61 251 10.0 28.0 0.00 0.00 0.00 71 1017.7
20260506113016 61 218 11.0 31.0 0.00 0.00 0.00 71 1017.7
20260506112507 61 221 10.0 31.0 0.00 0.00 0.00 71 1017.6
20260506112004 61 218 10.0 31.0 0.00 0.00 0.00 72 1017.7
20260506111504 61 207 13.0 29.0 0.00 0.00 0.00 72 1017.7
20260506111004 61 268 11.0 30.0 0.00 0.00 0.00 73 1017.8
20260506110604 61 212 14.0 30.0 0.00 0.00 0.00 73 1017.7
20260506110006 61 275 11.0 25.0 0.00 0.00 0.00 73 1017.7
20260506105502 61 226 10.0 25.0 0.00 0.00 0.00 74 1017.7
20260506105002 61 245 14.0 25.0 0.00 0.00 0.00 74 1017.7
20260506104501 60 223 12.0 23.0 0.00 0.00 0.00 74 1017.7
20260506104059 60 249 9.0 22.0 0.00 0.00 0.00 76 1017.7
20260506103557 59 277 10.0 26.0 0.00 0.00 0.00 77 1017.7
20260506103058 59 218 13.0 28.0 0.00 0.00 0.00 78 1017.8
20260506102059 58 285 12.0 33.0 0.00 0.00 0.00 80 1017.4
20260506101554 57 248 10.0 27.0 0.00 0.00 0.00 81 1017.4
20260506101055 57 211 8.0 20.0 0.00 0.00 0.00 81 1017.5
20260506100556 57 216 9.0 23.0 0.00 0.00 0.00 82 1017.5
20260506100054 57 212 9.0 23.0 0.00 0.00 0.00 82 1017.7
20260506095555 57 195 8.0 24.0 0.00 0.00 0.00 82 1017.7
20260506095053 57 280 12.0 24.0 0.00 0.00 0.00 82 1017.5
20260506094554 57 243 12.0 26.0 0.00 0.00 0.00 83 1017.6
20260506094056 57 231 12.0 26.0 0.00 0.00 0.00 83 1017.5
20260506093553 57 272 13.0 25.0 0.00 0.00 0.00 83 1017.6
20260506093053 57 191 10.0 21.0 0.00 0.00 0.00 83 1017.7
20260506092052 57 251 11.0 23.0 0.00 0.00 0.00 84 1017.5
20260506091558 57 234 11.0 29.0 0.00 0.00 0.00 84 1017.4
20260506091054 56 251 10.0 30.0 0.00 0.00 0.00 84 1017.3
20260506090553 56 275 13.0 27.0 0.00 0.00 0.00 85 1017.1
20260506090057 56 216 10.0 28.0 0.00 0.00 0.00 85 1017.1
20260506085548 56 259 11.0 29.0 0.00 0.00 0.00 85 1017.0
20260506085048 56 241 10.0 33.0 0.00 0.00 0.00 85 1016.7
20260506084550 56 261 14.0 33.0 0.00 0.00 0.00 85 1016.9
20260506084047 56 266 14.0 27.0 0.00 0.00 0.00 86 1016.8
20260506083547 56 261 12.0 27.0 0.00 0.00 0.00 86 1016.7
20260506083047 56 268 12.0 26.0 0.00 0.00 0.00 87 1016.7
20260506082045 55 241 12.0 24.0 0.00 0.00 0.00 88 1016.7
20260506081544 55 256 11.0 27.0 0.00 0.00 0.00 88 1016.7
20260506081044 55 303 9.0 27.0 0.00 0.00 0.00 88 1016.8
20260506080543 54 212 12.0 26.0 0.00 0.00 0.00 89 1016.7
20260506073039 54 251 9.0 23.0 0.00 0.00 0.00 90 1017.2
20260506072143 53 267 10.0 26.0 0.00 0.00 0.00 90 1017.3
20260506071540 53 251 10.0 26.0 0.00 0.00 0.00 90 1017.3
20260506071037 53 203 8.0 23.0 0.00 0.00 0.00 91 1017.4
20260506070536 53 236 11.0 23.0 0.00 0.00 0.00 91 1017.4
20260506062031 52 242 8.0 18.0 0.00 0.00 0.00 92 1017.9
20260506061531 51 305 7.0 16.0 0.00 0.00 0.00 92 1017.8
20260506061030 51 256 8.0 18.0 0.00 0.00 0.00 92 1017.8
20260506060529 51 254 7.0 19.0 0.00 0.00 0.00 92 1017.9
20260506051025 49 203 10.0 24.0 0.00 0.00 0.00 89 1017.6
20260506050524 49 247 10.0 26.0 0.00 0.00 0.00 89 1017.6
20260506045021 49 244 9.0 23.0 0.00 0.00 0.00 86 1017.8
20260506044522 49 194 7.0 19.0 0.00 0.00 0.00 85 1017.8
20260506044018 49 275 9.0 22.0 0.00 0.00 0.00 85 1017.9
20260506043522 50 207 8.0 22.0 0.00 0.00 0.00 84 1017.9
20260506043017 50 249 7.0 15.0 0.00 0.00 0.00 83 1017.9
20260506042016 50 184 6.0 13.0 0.00 0.00 0.00 82 1017.8
20260506041514 50 230 6.0 14.0 0.00 0.00 0.00 81 1017.7
20260506041013 50 243 7.0 14.0 0.00 0.00 0.00 80 1017.8
20260506040513 50 193 7.0 13.0 0.00 0.00 0.00 79 1017.6
20260506040021 50 241 6.0 16.0 0.00 0.00 0.00 79 1017.6
20260506035514 50 203 9.0 16.0 0.00 0.00 0.00 78 1017.5
20260506035010 50 231 7.0 21.0 0.00 0.00 0.00 78 1017.5
20260506034518 50 208 8.0 21.0 0.00 0.00 0.00 78 1017.4
20260506034008 50 220 9.0 18.0 0.00 0.00 0.00 78 1017.3
20260506033507 50 228 10.0 18.0 0.00 0.00 0.00 78 1017.3
20260506033007 50 256 8.0 16.0 0.00 0.00 0.00 78 1017.2
20260506032009 50 276 8.0 18.0 0.00 0.00 0.00 78 1017.1
20260506031506 49 266 8.0 19.0 0.00 0.00 0.00 78 1017.1
20260506031005 49 191 9.0 19.0 0.00 0.00 0.00 78 1017.1
20260506030507 49 219 8.0 16.0 0.00 0.00 0.00 78 1017.1
20260506030011 50 255 8.0 19.0 0.00 0.00 0.00 77 1017.0
20260506025502 50 247 9.0 19.0 0.00 0.00 0.00 77 1017.1
20260506025101 50 232 8.0 19.0 0.00 0.00 0.00 77 1017.0
20260506024619 50 257 8.0 20.0 0.00 0.00 0.00 76 1016.9
20260506024059 50 267 9.0 20.0 0.00 0.00 0.00 76 1016.8
20260506023558 50 257 8.0 19.0 0.00 0.00 0.00 76 1016.7
20260506023057 51 205 9.0 26.0 0.00 0.00 0.00 75 1016.7
20260506022056 51 225 10.0 21.0 0.00 0.00 0.00 75 1016.6
20260506021558 51 218 8.0 22.0 0.00 0.00 0.00 75 1016.7
20260506021057 51 216 10.0 22.0 0.00 0.00 0.00 74 1016.6
20260506020555 51 264 10.0 23.0 0.00 0.00 0.00 75 1016.5
20260506020058 51 244 9.0 23.0 0.00 0.00 0.00 75 1016.4
20260506015555 51 209 10.0 22.0 0.00 0.00 0.00 75 1016.5
20260506015055 51 274 12.0 22.0 0.00 0.00 0.00 75 1016.4
20260506014554 51 230 10.0 21.0 0.00 0.00 0.00 75 1016.3
20260506014057 51 230 10.0 21.0 0.00 0.00 0.00 75 1016.2
20260506013558 51 243 10.0 21.0 0.00 0.00 0.00 76 1016.2
20260506013104 50 222 9.0 24.0 0.00 0.00 0.00 76 1016.1